ONEWEB-0693, 61601

Orbit data source: Space-Track

ONEWEB-0693, 61601 is a payload satellite owned by Eut. One Web (UK) in LEO that was launched on Sun, 20 Oct 2024 UTC via an FALCON 9 launch vehicle from the Air Force Western Test Range (AFWTR). Payload-class satellites include a variety of spacecraft equipped with specific instruments for various scientific and technological missions. These include communications satellites like Starlink; space stations such as the ISS; scientific satellites like the Hubble; Earth observation satellites from companies like Planet Labs, Umbra, and HawkEye 360; GPS; miniature CubeSats for education and research; and military/defense satellites.

Loading next visibility...
Identifier
61601, 2024-188H
Orbit
LEO
Country
Flag of UKUK
Related business
Manufacturer
One Web
Mission
Operational Commercial Communications
Bus & Motor
ARROW, Unknown motor
Mass
148 kg wet, ~140 kg dry
Launch date (UTC)
2024-10-20 (11 months ago)
Launch vehicle
FALCON 9
Launch site
Air Force Western Test Range (AFWTR)
Object type
Payload
Rocket body
Debris
Shape & HBR
Trap Box + 2 Pan, 2.5 m
Radar Cross Section
2.032 m², Medium (>0.1 m² and < 1m²)

Expand to show TLE details & history
Last TLE update: 1 day ago

TLE from 1 day ago
0 ONEWEB-0693
1 61601U 24188H   25259.97700365  .00000064  00000-0  13285-3 0  9999
2 61601  87.9041  60.2708 0001432  63.3351 296.7927 13.17648443 49904
Epoch: 2025-09-16T23:26Z
TLE epoch observation values (Epoch: 2025-09-16T23:26:53.115Z)
Latitude
-0.00002°
Longitude
72.38992°
Altitude
1,196.125 km
Speed
7.256 km/s
True Right ascension
04h 01m 04s
True Declination
0° 00' 00"
Sunlit
Object was in daylight at epoch
Visualization orbit readout
Latitude
Unknown
Longitude
Unknown
Altitude
Unknown
Speed
Unknown
Apparent Right ascension
Unknown
Apparent Declination
Unknown
Sunlit
N/A
Visualization observer readout
Local Sidereal Time
18:44:54
Azimuth
Unknown
Elevation
Unknown
Doppler factor
Unknown
Orbital elements
Apogee altitude
1,191.908 km
Perigee altitude
1,189.74 km
Semi-major axis
7,568.961 km
Eccentricity
0.00014
Inclination
87.9041°
RAAN
60.2708°
Arg. of periapsis
63.3351°
True anomaly
296.77805°
Mean anomaly
296.7927°
Eccentric anomaly
296.78538°
Mean motion
3.29601 °/min
Orbital period
109.22 mins
BSTAR
0.00013285
Loading maneuver chart data...
Computing Atmospheric mass density...
Loading historical data...
Loading historical data...
Loading historical data...
Loading historical data...
Loading historical data...
Loading historical data...
Loading historical data...

Documentation

Showing up to 5 results
|